• In Deutschland
  • Länderverzeichnis
  • Für 7 Tage
  • Wassertemperatur
  • Satellitenkarten
  • Wetterkarte
  • Widgets
  • user-avatar
    Anmelden

    Stündliche Wetter Schwanewede

    Heute, 24 September, Montag

    Zeit Temperatur Niederschläge Wind Luftdruck Luftfeuchtigkeit
    00:00 +7°C° 0.1 mm 5 m/S 763 mmHg 84%
    01:00 +7°C° 0 mm 5 m/S 764 mmHg 85%
    02:00 +7°C° 0.2 mm 5 m/S 764 mmHg 84%
    03:00 +7°C° 0.2 mm 6 m/S 765 mmHg 83%
    04:00 +7°C° 0.2 mm 6 m/S 765 mmHg 82%
    05:00 +7°C° 0.2 mm 6 m/S 766 mmHg 82%
    06:00 +7°C° 0.2 mm 6 m/S 767 mmHg 81%
    07:00 +7°C° 0 mm 4 m/S 767 mmHg 83%
    08:00 +8°C° 0.4 mm 5 m/S 768 mmHg 79%
    09:00 +9°C° 0.4 mm 6 m/S 768 mmHg 74%
    10:00 +10°C° 0.4 mm 8 m/S 769 mmHg 70%
    11:00 +11°C° 0.3 mm 8 m/S 769 mmHg 67%
    12:00 +11°C° 0.3 mm 8 m/S 770 mmHg 64%
    13:00 +12°C° 0.3 mm 8 m/S 770 mmHg 61%
    14:00 +12°C° 0.1 mm 8 m/S 770 mmHg 59%
    15:00 +12°C° 0.1 mm 8 m/S 771 mmHg 57%
    16:00 +11°C° 0.1 mm 8 m/S 771 mmHg 56%
    17:00 +10°C° 0 mm 7 m/S 771 mmHg 60%
    18:00 +9°C° 0 mm 6 m/S 772 mmHg 64%
    19:00 +8°C° 0 mm 5 m/S 772 mmHg 68%
    20:00 +7°C° 0 mm 4 m/S 773 mmHg 71%
    21:00 +7°C° 0 mm 4 m/S 773 mmHg 74%
    22:00 +6°C° 0 mm 4 m/S 774 mmHg 77%
    23:00 +7°C° 0 mm 3 m/S 774 mmHg 79%

    Morgen, 25 September, Dienstag

    Zeit Temperatur Niederschläge Wind Luftdruck Luftfeuchtigkeit
    00:00 +7°C° 0 mm 3 m/S 774 mmHg 81%
    01:00 +5°C° 0 mm 3 m/S 775 mmHg 82%
    02:00 +5°C° 0 mm 3 m/S 775 mmHg 83%
    03:00 +6°C° 0 mm 2 m/S 775 mmHg 83%
    04:00 +6°C° 0 mm 2 m/S 775 mmHg 83%
    05:00 +6°C° 0 mm 2 m/S 775 mmHg 83%
    06:00 +6°C° 0 mm 2 m/S 776 mmHg 84%
    07:00 +6°C° 0 mm 2 m/S 776 mmHg 84%
    08:00 +8°C° 0 mm 2 m/S 776 mmHg 76%
    09:00 +12°C° 0 mm 2 m/S 777 mmHg 69%
    10:00 +14°C° 0 mm 2 m/S 777 mmHg 61%
    11:00 +14°C° 0 mm 2 m/S 777 mmHg 58%
    12:00 +15°C° 0 mm 2 m/S 777 mmHg 55%
    13:00 +16°C° 0 mm 2 m/S 777 mmHg 52%
    14:00 +16°C° 0 mm 2 m/S 776 mmHg 53%
    15:00 +15°C° 0 mm 2 m/S 776 mmHg 54%
    16:00 +15°C° 0 mm 2 m/S 776 mmHg 55%
    17:00 +14°C° 0 mm 2 m/S 776 mmHg 60%
    18:00 +13°C° 0 mm 2 m/S 776 mmHg 65%
    19:00 +11°C° 0 mm 1 m/S 776 mmHg 71%
    20:00 +10°C° 0 mm 2 m/S 776 mmHg 73%
    21:00 +9°C° 0 mm 2 m/S 776 mmHg 76%
    22:00 +8°C° 0 mm 2 m/S 776 mmHg 79%
    23:00 +8°C° 0 mm 3 m/S 775 mmHg 79%

    übermorgen, 26 September, Mittwoch

    Zeit Temperatur Niederschläge Wind Luftdruck Luftfeuchtigkeit
    00:00 +8°C° 0 mm 3 m/S 775 mmHg 79%
    01:00 +7°C° 0 mm 3 m/S 775 mmHg 79%
    02:00 +7°C° 0 mm 3 m/S 774 mmHg 77%
    03:00 +6°C° 0 mm 4 m/S 774 mmHg 76%
    04:00 +6°C° 0 mm 4 m/S 774 mmHg 74%
    05:00 +6°C° 0 mm 4 m/S 774 mmHg 73%
    06:00 +6°C° 0 mm 4 m/S 773 mmHg 72%
    07:00 +6°C° 0 mm 5 m/S 773 mmHg 70%
    08:00 +8°C° 0 mm 5 m/S 773 mmHg 65%
    09:00 +11°C° 0 mm 6 m/S 773 mmHg 59%
    10:00 +14°C° 0 mm 7 m/S 773 mmHg 53%
    11:00 +15°C° 0 mm 7 m/S 772 mmHg 51%
    12:00 +16°C° 0 mm 7 m/S 772 mmHg 50%
    13:00 +17°C° 0 mm 7 m/S 772 mmHg 48%
    14:00 +17°C° 0 mm 7 m/S 771 mmHg 49%
    15:00 +17°C° 0 mm 7 m/S 771 mmHg 51%
    16:00 +19°C° 0 mm 6 m/S 770 mmHg 52%
    17:00 +16°C° 0 mm 6 m/S 770 mmHg 57%
    18:00 +15°C° 0 mm 5 m/S 770 mmHg 62%
    19:00 +14°C° 0 mm 4 m/S 770 mmHg 67%
    20:00 +13°C° 0 mm 5 m/S 771 mmHg 69%
    21:00 +13°C° 0 mm 5 m/S 771 mmHg 72%
    22:00 +12°C° 0 mm 5 m/S 771 mmHg 74%
    23:00 +12°C° 0 mm 5 m/S 771 mmHg 75%

    27 September, Donnerstag

    Zeit Temperatur Niederschläge Wind Luftdruck Luftfeuchtigkeit
    00:00 +12°C° 0 mm 5 m/S 771 mmHg 77%
    01:00 +12°C° 0 mm 5 m/S 770 mmHg 78%
    02:00 +12°C° 0 mm 5 m/S 770 mmHg 79%
    03:00 +10°C° 0 mm 5 m/S 770 mmHg 79%
    04:00 +10°C° 0 mm 5 m/S 770 mmHg 80%
    05:00 +11°C° 0 mm 4 m/S 770 mmHg 80%
    06:00 +11°C° 0 mm 4 m/S 770 mmHg 81%
    07:00 +11°C° 0 mm 4 m/S 770 mmHg 82%
    08:00 +13°C° 0 mm 4 m/S 770 mmHg 77%
    09:00 +15°C° 0 mm 4 m/S 770 mmHg 72%
    10:00 +17°C° 0 mm 5 m/S 770 mmHg 68%
    11:00 +19°C° 0 mm 5 m/S 769 mmHg 65%
    12:00 +20°C° 0 mm 5 m/S 769 mmHg 62%
    13:00 +21°C° 0 mm 5 m/S 769 mmHg 59%
    14:00 +22°C° 0 mm 5 m/S 768 mmHg 59%
    15:00 +22°C° 0 mm 5 m/S 768 mmHg 59%
    16:00 +22°C° 0 mm 5 m/S 767 mmHg 59%
    17:00 +20°C° 0 mm 4 m/S 767 mmHg 66%
    18:00 +18°C° 0 mm 4 m/S 767 mmHg 72%
    19:00 +16°C° 0 mm 3 m/S 767 mmHg 78%
    20:00 +14°C° 0 mm 3 m/S 766 mmHg 80%
    21:00 +13°C° 0 mm 3 m/S 766 mmHg 81%
    22:00 +13°C° 0 mm 3 m/S 766 mmHg 83%
    23:00 +12°C° 0 mm 3 m/S 766 mmHg 84%

    28 September, Freitag

    Zeit Temperatur Niederschläge Wind Luftdruck Luftfeuchtigkeit
    00:00 +12°C° 0 mm 3 m/S 766 mmHg 85%
    01:00 +11°C° 0 mm 3 m/S 765 mmHg 86%
    02:00 +11°C° 0 mm 3 m/S 765 mmHg 87%
    03:00 +10°C° 0 mm 3 m/S 765 mmHg 88%
    04:00 +10°C° 0 mm 2 m/S 765 mmHg 89%
    05:00 +10°C° 0 mm 2 m/S 765 mmHg 91%
    06:00 +10°C° 0 mm 2 m/S 765 mmHg 92%
    07:00 +10°C° 0 mm 2 m/S 765 mmHg 93%
    08:00 +13°C° 0 mm 2 m/S 766 mmHg 86%
    09:00 +13°C° 0 mm 3 m/S 766 mmHg 80%
    10:00 +16°C° 0 mm 3 m/S 766 mmHg 73%
    11:00 +16°C° 0 mm 3 m/S 766 mmHg 70%
    12:00 +16°C° 0 mm 3 m/S 766 mmHg 67%
    13:00 +15°C° 0 mm 4 m/S 767 mmHg 63%
    14:00 +15°C° 0 mm 4 m/S 766 mmHg 62%
    15:00 +15°C° 0 mm 4 m/S 766 mmHg 60%
    16:00 +15°C° 0 mm 4 m/S 766 mmHg 58%
    17:00 +13°C° 0 mm 4 m/S 767 mmHg 63%
    18:00 +12°C° 0 mm 4 m/S 767 mmHg 68%
    19:00 +11°C° 0 mm 4 m/S 767 mmHg 72%
    20:00 +10°C° 0 mm 4 m/S 768 mmHg 76%
    21:00 +9°C° 0 mm 3 m/S 768 mmHg 79%
    22:00 +8°C° 0 mm 3 m/S 769 mmHg 82%
    23:00 +8°C° 0 mm 3 m/S 769 mmHg 82%

    29 September, Samstag

    Zeit Temperatur Niederschläge Wind Luftdruck Luftfeuchtigkeit
    00:00 +7°C° 0 mm 3 m/S 769 mmHg 83%
    01:00 +7°C° 0 mm 3 m/S 769 mmHg 84%
    02:00 +6°C° 0 mm 2 m/S 769 mmHg 84%
    03:00 +6°C° 0 mm 2 m/S 769 mmHg 84%
    04:00 +5°C° 0 mm 2 m/S 769 mmHg 85%
    05:00 +5°C° 0 mm 2 m/S 769 mmHg 84%
    06:00 +6°C° 0 mm 1 m/S 770 mmHg 84%
    07:00 +6°C° 0 mm 1 m/S 770 mmHg 84%
    08:00 +7°C° 0 mm 2 m/S 770 mmHg 74%
    09:00 +10°C° 0 mm 2 m/S 770 mmHg 65%
    10:00 +13°C° 0 mm 2 m/S 770 mmHg 55%
    11:00 +14°C° 0 mm 2 m/S 770 mmHg 51%
    12:00 +15°C° 0 mm 2 m/S 770 mmHg 47%
    13:00 +15°C° 0 mm 2 m/S 770 mmHg 43%
    14:00 +15°C° 0 mm 2 m/S 769 mmHg 44%
    15:00 +15°C° 0 mm 2 m/S 769 mmHg 45%
    16:00 +15°C° 0 mm 2 m/S 769 mmHg 46%
    17:00 +13°C° 0 mm 2 m/S 769 mmHg 55%
    18:00 +12°C° 0 mm 2 m/S 769 mmHg 64%
    19:00 +9°C° 0 mm 2 m/S 769 mmHg 72%
    20:00 +8°C° 0 mm 2 m/S 769 mmHg 76%
    21:00 +7°C° 0 mm 2 m/S 769 mmHg 79%
    22:00 +7°C° 0 mm 2 m/S 769 mmHg 83%
    23:00 +7°C° 0 mm 2 m/S 768 mmHg 82%
    Mehr zeigen